Hourly Data Report for October 13, 2016

All times are specified in Local Standard Time (LST). Add 1 hour to adjust for Daylight Saving Time where and when it is observed.

ST LEONARD CS
NEW BRUNSWICK

47°09'28.050" N
67°49'55.014" W
245.00 m
810I001
71019
WIY

Download Data

Hourly Data (October 2016)
Hourly Data Report for October 13, 2016
Temp Definition
°C
Dew Point Temp Definition
°C
Rel Hum Definition
%
Wind Dir Definition
10's deg

Wind Spd Definition
km/h
Visibility Definition
km
Stn Press Definition
kPa
Hmdx Definition


Wind Chill Definition


Weather Definition


TIME
00:00 8.7 2.1 63 16 14   99.14     LegendNANA
01:00 8.4 1.4 62 15 16   99.10     LegendNANA
02:00 7.9 1.5 64 17 18   99.03     LegendNANA
03:00 7.1 2.9 75 17 15   99.00     LegendNANA
04:00 6.7 4.9 89 17 20   99.00     LegendNANA
05:00 7.5 6.0 90 16 18   98.93     LegendNANA
06:00 8.2 6.4 89 17 20   98.87     LegendNANA
07:00 8.4 6.6 89 17 19   98.86     LegendNANA
08:00 9.1 7.0 87 17 16   98.82     LegendNANA
09:00 10.6 7.5 81 17 21   98.77     LegendNANA
10:00 11.7 7.7 77 18 23   98.72     LegendNANA
11:00 11.5 8.7 83 17 24   98.60     LegendNANA
12:00 12.4 9.4 82 17 25   98.46     LegendNANA
13:00 14.4 9.4 72 18 25   98.35     LegendNANA
14:00 15.8 9.6 66 17 29   98.27     LegendNANA
15:00 16.8 7.7 55 19 28   98.24     LegendNANA
16:00 16.6 8.1 57 19 23   98.21     LegendNANA
17:00 15.1 8.5 65 19 18   98.21     LegendNANA
18:00 14.6 8.9 68 18 16   98.21     LegendNANA
19:00 14.4 9.3 71 17 15   98.23     LegendNANA
20:00 13.6 10.2 80 18 16   98.22     LegendNANA
21:00 12.7 10.9 89 20 13   98.25     LegendNANA
22:00 12.2 11.2 94 21 16   98.24     LegendNANA
23:00 11.7 11.0 96 21 16   98.27     LegendNANA

Notes on Data Quality.

Legend

  • E = Estimated
  • M = Missing
  • NA = Not Available
  • ‡ = Partner data that is not subject to review by the National Climate Archives
Date modified: